{"data":{"norad_id":64931,"intl_designator":"2025-157AD","name":"STARLINK-34715","alt_names":[],"object_type":"PAYLOAD","status":"ACTIVE","operator":null,"country":"US","launch_date":"2025-07-26","launch_site_code":"AFETR","launch_vehicle":null,"mission":null,"orbit_class":"UNKNOWN","rcs_meters":null,"size_class":null,"mass_kg":null,"dimensions":null,"purposes":["comms"],"wikipedia_slug":null,"has_3d_model":false,"image_url":null,"decayed_at":null,"tle_current":{"epoch":"2026-05-24T23:26:12.630048Z","epoch_age_seconds":74250,"freshness":"FRESH","line1":"1 64931U 25157AD  26144.97653507  .00027191  00000+0  92681-3 0  9990","line2":"2 64931  53.1613 351.3186 0001173  82.7528 277.3606 15.30199914 47807","mean_motion":15.30199914,"eccentricity":0.0001173,"inclination_deg":53.1613,"raan_deg":351.3186,"arg_perigee_deg":82.7528,"mean_anomaly_deg":277.3606,"bstar":0.00092681,"rev_number":4780,"period_min":94.105350995334,"perigee_km":474.41142797197,"apogee_km":476.0192244277,"semimajor_km":6853.3523261998,"source":"CELESTRAK","updated_at":"2026-05-25T13:38:20.627648Z"}}}